Lid_Strength_Index
5 4 4 4 3 3 3 2 2 1 2 2 1 1 0 -0 0 0 0 -0 1 1 1 -0 -1 -1 -1 -1 -1 -1 -1 -0 -0
6 5 4 4 3 3 3 2 2 2 2 1 1 1 0 0 -0 0 -0 -0 0 -0 -0 -0 -1 -1 -1 -1 -1 -1 -1 -0 0
5 5 5 4 3 3 2 2 2 1 1 1 1 1 1 1 0 -0 -0 -1 0 0 -0 -0 -0 -0 -0 -0 -1 -1 -1 -1 -0
5 4 4 4 4 3 2 2 1 2 1 1 1 1 1 1 0 0 -0 0 -0 -0 -0 -0 0 -1 -1 -0 -0 -1 -0 -1 -0
5 4 4 3 3 3 3 2 2 3 2 2 1 1 1 1 0 0 0 0 -0 -0 -0 -0 -0 -0 -0 -0 -1 -0 -1 0 -0
5 4 4 3 3 4 4 3 2 2 2 2 1 1 1 1 1 1 0 0 0 -0 -0 -0 -0 -0 -0 0 -0 0 0 0 0
6 5 4 4 4 3 3 3 2 2 2 1 1 1 1 1 1 1 1 0 0 -0 -0 0 -0 -0 -0 -0 -0 -0 -0 0 0
6 5 5 5 4 4 3 3 3 2 2 2 2 1 1 1 1 1 1 1 0 -0 -0 -0 -0 -0 -0 -0 0 3 3 1 1
6 6 5 5 4 4 3 3 3 2 2 1 1 2 1 1 0 0 1 1 1 0 -1 -0 -0 -0 0 1 4 6 5 2 0
6 6 5 5 4 3 3 3 2 2 2 1 1 2 1 1 1 1 1 1 1 1 0 -0 0 1 1 4 6 8 7 4 -0
6 5 5 4 4 3 3 2 2 2 1 2 2 2 1 1 1 2 2 2 2 2 1 1 2 2 2 4 7 9 7 5 0
5 4 4 5 6 5 5 3 2 2 2 2 2 2 2 1 1 1 1 2 2 2 2 3 3 4 5 5 9 9 8 5 0
4 4 4 5 6 7 6 6 5 4 5 5 5 3 2 2 1 1 1 1 1 1 2 4 5 6 7 8 10 10 10 6 2
4 5 6 6 7 7 8 7 7 7 6 6 6 5 4 2 2 2 1 1 1 1 2 4 4 6 7 9 9 11 10 10 7
6 7 6 6 7 7 7 7 7 8 8 6 5 6 5 5 4 2 1 2 3 3 3 3 4 5 5 7 8 10 10 10 9
6 7 7 7 7 6 6 7 7 7 6 5 4 5 5 5 4 3 2 2 2 3 3 4 4 4 4 5 5 6 9 8 8
6 6 6 6 6 6 6 6 5 6 6 5 5 5 5 5 5 8 10 8 3 6 7 3 2 2 2 3 6 8 8 7 5
4 5 5 4 5 5 5 5 5 5 5 4 5 5 5 6 5 7 10 14 13 11 13 13 5 5 6 5 6 10 11 11 9
6 5 4 4 4 5 5 4 5 5 4 3 4 5 5 5 4 5 6 9 12 14 13 14 14 13 9 10 11 11 12 12 12
5 6 5 5 5 5 5 5 4 3 3 4 3 4 3 5 5 6 6 8 10 12 12 13 13 13 13 13 12 12 13 13 12